Location: American Medical Response
(33.3472°N, 96.5511°W)
Time: 10:42:21
(UTC+00:00)

Cosmos 1805 Rocket - Pass Details

Date: 12 July 2022
Orbit: 605 x 629 km, 82.5° (Epoch: 09 August)

Event Time Altitude Azimuth Distance (km) Brightness Sun altitude
Exits shadow 09:40:09 17° 288° (WNW) 1,553 5.3 -18.8°
Drops below altitude 10° 09:42:50 10° 327° (NNW) 1,977 6.3 -18.4°
Sets 09:45:44 0° 347° (NNW) 2,881 7.4 -18.0°
